[[{"header":{"parameterUnit":"m.s-1","parameterCategory":1,"la1":30.2991,"la2":30.254,"lo1":-89.0895,"lo2":-89.0444,"dy":0.0017,"dx":0.0017,"nx":28,"ny":28,"refTime":"2024-02-08T09:00:00:Z","depth":0,"parameterNumber":2,"parameterNumberName":"U-component_of_WINDS"},"data":[0,0,0,0,0,0,0,0,0,0,0,0,0,0,0,0,0,0,0,0,0,0,0,0,0,0,0,0,0,0,0,0,0,0,0,0,0,0,0,0,0,0,0,0,0,0,0,0,0,0,0,0,0,0,0,0,0,0,-2.2143,-2.2143,0,-2.2221,-2.2222,-2.2223,-2.2223,-2.2222,-2.2221,-2.222,-2.2303,-2.2306,-2.2309,0,0,0,0,0,0,0,0,0,0,0,0,0,-2.1997,-2.1999,-2.2143,-2.2144,-2.2144,-2.2221,-2.2222,-2.2223,-2.2223,-2.2222,-2.2221,-2.222,-2.2302,-2.2306,-2.231,0,0,0,0,0,0,0,0,0,0,0,0,0,-2.2066,-2.2,-2.2142,-2.2154,-2.2156,-2.222,-2.2222,-2.2223,-2.2224,-2.2222,-2.2221,-2.2219,-2.2301,-2.2306,-2.231,-2.237,0,0,-2.2325,-2.2327,0,0,0,0,0,0,0,0,-2.2062,-2.2071,-2.2151,-2.2153,-2.2155,-2.2211,-2.2201,-2.2272,-2.2224,-2.2198,-2.222,-2.2218,-2.2274,-2.2281,-2.2299,-2.2373,-2.2377,-2.2325,-2.2328,-2.233,-2.2331,0,0,0,0,0,0,0,-2.2057,-2.2068,-2.2174,-2.2152,-2.2155,-2.2156,-2.2164,-2.2214,-2.2244,-2.22,-2.22,-2.2209,-2.2275,-2.2294,-2.2301,-2.2378,-2.2325,-2.2329,-2.2332,-2.2334,-2.2506,-2.2507,0,0,0,0,0,0,-2.205,-2.2064,-2.2171,-2.2176,-2.2104,-2.216,-2.2169,-2.2194,-2.2243,-2.2249,-2.2211,-2.2209,-2.2287,-2.2295,-2.2304,-2.2376,-2.233,-2.2334,-2.2337,-2.2504,-2.2506,-2.2508,0,0,0,0,0,0,-2.2047,-2.2059,-2.2168,-2.212,-2.2134,-2.2164,-2.2193,-2.2197,-2.2216,-2.2251,-2.2256,-2.2225,-2.2286,-2.2297,-2.2353,-2.2379,-2.2336,-2.2341,-2.2502,-2.2505,-2.2507,-2.2521,0,0,0,0,0,0,-2.2043,-2.2058,-2.208,-2.2121,-2.2137,-2.2215,-2.2194,-2.2199,-2.2224,-2.2223,-2.2266,-2.2271,-2.2286,-2.2346,-2.2358,-2.2384,-2.2344,-2.25,-2.2503,-2.2506,-2.2518,-2.2523,-2.2528,0,0,0,0,0,-2.2037,-2.2082,-2.2081,-2.2094,-2.2165,-2.2216,-2.2226,-2.224,-2.2226,-2.2249,-2.2271,-2.227,-2.2374,-2.2352,-2.2365,-2.2393,-2.2498,-2.2502,-2.2506,-2.2516,-2.2522,-2.2528,0,0,0,0,0,0,-2.2045,-2.2087,-2.2087,-2.2146,-2.2177,-2.2216,-2.2245,-2.2247,-2.2284,-2.2281,-2.2299,-2.2309,-2.2364,-2.2385,-2.2359,-2.2453,-2.2435,-2.2441,-2.2438,-2.2444,-2.2449,-2.2442,-2.2348,0,0,0,0,0,-2.2053,-2.209,-2.2126,-2.2174,-2.219,-2.2215,-2.2238,-2.2247,-2.2281,-2.2294,-2.2321,-2.2354,-2.2395,-2.2421,-2.246,-2.2522,-2.2531,-2.2548,-2.2553,-2.2557,-2.2562,-2.2596,-2.2604,-2.2521,-2.2521,-2.2521,0,0,-2.2071,-2.2099,-2.2121,-2.2177,-2.2202,-2.2241,-2.2226,-2.2269,-2.2298,-2.2301,-2.2355,-2.2376,-2.2415,-2.2473,-2.2501,-2.2492,-2.2587,-2.2562,-2.2565,-2.2568,-2.2601,-2.2609,-2.2615,-2.2523,-2.2523,-2.2522,0,0,-2.2122,-2.2148,-2.219,-2.2216,-2.2254,-2.2271,-2.2281,-2.232,-2.2333,-2.2388,-2.2391,-2.2427,-2.2496,-2.2523,-2.2546,-2.2609,-2.2609,-2.2622,-2.2647,-2.268,-2.2687,-2.2692,-2.2714,-2.2722,-2.2627,-2.2627,-2.2627,0,-2.214,-2.2198,-2.2212,-2.2254,-2.2278,-2.2282,-2.2326,-2.2351,-2.24,-2.2417,-2.2407,-2.2494,-2.252,-2.2585,-2.2601,-2.262,-2.2632,-2.2616,-2.2684,-2.269,-2.2696,-2.2717,-2.2725,-2.2628,-2.2628,-2.2628,-2.2628,0,-2.2217,-2.2257,-2.2287,-2.2333,-2.2362,-2.2404,-2.2426,-2.2453,-2.2459,-2.2477,-2.2533,-2.2565,-2.261,-2.2627,-2.2634,-2.2693,-2.2687,-2.268,-2.2662,-2.2705,-2.2725,-2.2733,-2.263,-2.263,-2.2629,-2.2629,0,0,-2.2274,-2.2328,-2.2339,-2.236,-2.2403,-2.2435,-2.2478,-2.2522,-2.2544,-2.2579,-2.2615,-2.2674,-2.2669,-2.2695,-2.2705,-2.2734,-2.2781,-2.2725,-2.2726,-2.2733,-2.2848,-2.2851,-2.286,-2.2783,-2.2784,-2.2786,-2.2845,0,-2.233,-2.2405,-2.2419,-2.2485,-2.2523,-2.2528,-2.2566,-2.2597,-2.2615,-2.265,-2.2671,-2.2712,-2.2702,-2.2717,-2.2746,-2.2769,-2.2805,-2.2766,-2.2817,-2.2819,-2.2806,-2.2871,-2.2875,-2.2929,-2.2853,-2.2854,-2.2855,0,-2.2404,-2.2439,-2.2508,-2.2546,-2.2562,-2.2596,-2.2637,-2.267,-2.2706,-2.2718,-2.2747,-2.2754,-2.2801,-2.2781,-2.2845,-2.2818,-2.284,-2.2855,-2.2857,-2.2862,-2.2838,-2.2876,-2.2947,-2.2954,-2.2867,-2.2866,-2.2866,0,-2.2438,-2.2503,-2.2552,-2.257,-2.2616,-2.2639,-2.2659,-2.2693,-2.2719,-2.2755,-2.2772,-2.2814,-2.2837,-2.2869,-2.2889,-2.2872,-2.2951,-2.2933,-2.2962,-2.2961,-2.2977,-2.2975,-2.3051,-2.2994,-2.2993,-2.2993,-2.2993,0,-2.2497,-2.2539,-2.2567,-2.2598,-2.2645,-2.2663,-2.2709,-2.273,-2.276,-2.2795,-2.2803,-2.2836,-2.286,-2.2897,-2.2912,-2.2963,-2.2974,-2.2984,-2.2988,-2.2983,-2.2981,-2.2996,-2.2993,-2.2996,-2.2995,-2.2995,-2.2994,0,-2.2542,-2.2563,-2.2617,-2.2655,-2.2666,-2.2699,-2.2733,-2.2763,-2.2782,-2.2826,-2.2838,-2.2867,-2.2911,-2.2933,-2.2989,-2.2999,-2.3055,-2.3057,-2.3043,-2.3044,-2.3071,-2.3068,-2.3158,-2.317,-2.3106,-2.3106,-2.3107,0,-2.2578,-2.261,-2.2652,-2.2675,-2.2696,-2.2734,-2.2759,-2.2778,-2.2804,-2.2848,-2.2873,-2.2917,-2.2952,-2.3022,-2.3049,-2.3092,-2.3094,-2.3123,-2.31,-2.3094,-2.3093,-2.309,-2.3094,-2.3126,-2.3127,-2.3127,-2.3128,0,-2.2639,-2.2648,-2.2683,-2.2723,-2.2753,-2.2785,-2.2817,-2.2836,-2.2861,-2.289,-2.2934,-2.2962,-2.3018,-2.3061,-2.3105,-2.3128,-2.3132,-2.3135,-2.3143,-2.3138,-2.3128,-2.3133,-2.3052,-2.3132,-2.3132,-2.3131,-2.3131,-2.3131,-2.268,-2.2709,-2.2742,-2.2782,-2.2808,-2.2837,-2.2867,-2.289,-2.2926,-2.2972,-2.2981,-2.3028,-2.3064,-2.3123,-2.3147,-2.3185,-2.3179,-2.3192,-2.3195,-2.3197,-2.3198,-2.3123,-2.3193,-2.3193,-2.3193,-2.3193,-2.3193,0,-2.2741,-2.2763,-2.2799,-2.2843,-2.2874,-2.2875,-2.291,-2.2937,-2.2977,-2.301,-2.3044,-2.3095,-2.3138,-2.3168,-2.3212,-2.3236,-2.3239,-2.3247,-2.3244,-2.3249,-2.3201,-2.3189,-2.3243,-2.3243,-2.3243,-2.3243,-2.3243,-2.3243,-2.2776,-2.2824,-2.2837,-2.2898,-2.292,-2.2965,-2.2985,-2.3013,-2.3038,-2.3094,-2.3129,-2.3148,-2.318,-2.3226,-2.3265,-2.3274,-2.3289,-2.3296,-2.3304,-2.3258,-2.3253,-2.3248,-2.3236,-2.33,-2.33,-2.3349,-2.335,-2.335]},{"header":{"parameterUnit":"m.s-1","parameterCategory":1,"la1":30.2991,"la2":30.254,"lo1":-89.0895,"lo2":-89.0444,"dy":0.0017,"dx":0.0017,"nx":28,"ny":28,"refTime":"2024-02-08T09:00:00:Z","depth":0,"parameterNumber":3,"parameterNumberName":"V-component_of_WINDS"},"data":[0,0,0,0,0,0,0,0,0,0,0,0,0,0,0,0,0,0,0,0,0,0,0,0,0,0,0,0,0,0,0,0,0,0,0,0,0,0,0,0,0,0,0,0,0,0,0,0,0,0,0,0,0,0,0,0,0,0,2.8061,2.8064,0,2.8346,2.835,2.8353,2.8449,2.8448,2.8447,2.8446,2.8738,2.8747,2.8756,0,0,0,0,0,0,0,0,0,0,0,0,0,2.7602,2.761,2.8061,2.8065,2.8068,2.8346,2.835,2.8354,2.845,2.8448,2.8447,2.8445,2.8735,2.8746,2.8757,0,0,0,0,0,0,0,0,0,0,0,0,0,2.7836,2.7613,2.806,2.8149,2.816,2.8345,2.835,2.8355,2.845,2.8448,2.8446,2.8445,2.8732,2.8745,2.8758,2.8875,0,0,2.8799,2.8804,0,0,0,0,0,0,0,0,2.7822,2.7853,2.8133,2.8144,2.8156,2.8361,2.8295,2.8529,2.845,2.834,2.8446,2.8444,2.8614,2.8637,2.8694,2.8889,2.8901,2.88,2.8808,2.8814,2.8817,0,0,0,0,0,0,0,2.7806,2.7841,2.8174,2.8137,2.8151,2.8176,2.8207,2.834,2.8483,2.8349,2.8357,2.8389,2.862,2.8681,2.8702,2.8906,2.8799,2.8811,2.882,2.8825,2.9215,2.9218,0,0,0,0,0,0,2.7775,2.7827,2.8165,2.8183,2.7982,2.8186,2.8221,2.8297,2.8482,2.8509,2.8391,2.8393,2.8659,2.8686,2.8712,2.8866,2.8814,2.8826,2.8834,2.9213,2.9216,2.9218,0,0,0,0,0,0,2.7764,2.7804,2.8153,2.8007,2.8053,2.8196,2.828,2.8303,2.8365,2.8513,2.8539,2.8427,2.8659,2.8694,2.8835,2.8877,2.8832,2.8844,2.921,2.9214,2.9217,2.917,0,0,0,0,0,0,2.7751,2.78,2.7845,2.8007,2.8061,2.827,2.8283,2.831,2.8387,2.8393,2.8554,2.8579,2.866,2.8815,2.8848,2.8894,2.8855,2.9207,2.9212,2.9216,2.9168,2.9171,2.9174,0,0,0,0,0,2.7734,2.7819,2.7847,2.7887,2.812,2.8272,2.8303,2.8395,2.839,2.8438,2.8534,2.8574,2.8866,2.8828,2.8867,2.8918,2.9205,2.921,2.9216,2.9167,2.917,2.9174,0,0,0,0,0,0,2.7658,2.7842,2.7874,2.8014,2.8127,2.8288,2.8351,2.8395,2.8511,2.8512,2.862,2.8656,2.879,2.8868,2.8822,2.9043,2.9038,2.9051,2.8987,2.8992,2.8995,2.8975,2.8866,0,0,0,0,0,2.7657,2.7765,2.792,2.8029,2.8084,2.8207,2.8277,2.8338,2.8459,2.8507,2.8614,2.873,2.8849,2.8924,2.9041,2.9179,2.9218,2.9233,2.9236,2.9237,2.9248,2.9331,2.9341,2.9236,2.9236,2.9236,0,0,2.7657,2.7771,2.7832,2.8016,2.8111,2.8222,2.8247,2.8362,2.8446,2.8525,2.8666,2.8748,2.8885,2.9026,2.9093,2.9095,2.9286,2.9244,2.9244,2.9255,2.9338,2.9347,2.9356,2.924,2.9239,2.9238,0,0,2.7714,2.781,2.7913,2.8007,2.8151,2.8233,2.8257,2.8413,2.8471,2.8614,2.8677,2.8778,2.8978,2.9075,2.915,2.9246,2.9289,2.9281,2.9297,2.9376,2.9384,2.9392,2.943,2.9442,2.9291,2.9291,2.9291,0,2.7696,2.7865,2.796,2.8074,2.8154,2.8231,2.8338,2.8425,2.8598,2.8653,2.8651,2.8908,2.9005,2.9172,2.9196,2.9253,2.9286,2.9264,2.9375,2.9384,2.9393,2.943,2.9444,2.9289,2.929,2.929,2.929,0,2.7838,2.7954,2.802,2.8187,2.8275,2.8383,2.8497,2.8574,2.8628,2.871,2.8856,2.8976,2.9121,2.9164,2.9217,2.934,2.9337,2.9353,2.9351,2.94,2.9437,2.9452,2.9287,2.9288,2.9288,2.9289,0,0,2.7855,2.8075,2.8098,2.8176,2.8341,2.8433,2.8546,2.8688,2.8754,2.8871,2.8971,2.914,2.9158,2.9243,2.9308,2.9377,2.945,2.9387,2.9392,2.9397,2.9597,2.9585,2.9599,2.9478,2.9481,2.9484,2.9586,0,2.7936,2.8142,2.8232,2.8398,2.8509,2.8584,2.8684,2.8796,2.8876,2.8983,2.9071,2.9191,2.9204,2.9257,2.9328,2.9426,2.9492,2.9419,2.9575,2.9579,2.9541,2.9618,2.9606,2.9697,2.9601,2.9603,2.9605,0,2.8058,2.8178,2.8355,2.8509,2.8559,2.8646,2.8785,2.8885,2.9015,2.9069,2.9165,2.9227,2.9351,2.9338,2.9512,2.9461,2.9529,2.9587,2.9593,2.9613,2.9597,2.9644,2.9727,2.9742,2.9628,2.9626,2.9625,0,2.8058,2.8262,2.8396,2.846,2.8642,2.8703,2.8782,2.891,2.899,2.9111,2.9165,2.9299,2.9372,2.9475,2.9572,2.9553,2.9738,2.9732,2.9788,2.9786,2.9826,2.9823,2.9925,2.9864,2.9864,2.9864,2.9864,0,2.8141,2.8247,2.8399,2.8481,2.8603,2.8706,2.8824,2.8908,2.9022,2.9123,2.9196,2.929,2.9411,2.952,2.9596,2.9731,2.9763,2.9811,2.9831,2.9807,2.9801,2.9856,2.9853,2.9868,2.9867,2.9866,2.9865,0,2.8161,2.8266,2.8418,2.8579,2.8622,2.8705,2.8843,2.8927,2.9011,2.9139,2.9175,2.9307,2.944,2.9547,2.9719,2.9771,2.9913,2.9934,2.987,2.9881,2.9932,2.9927,3.0075,3.0102,3.002,3.002,3.0021,0,2.8208,2.8292,2.8463,2.8536,2.8615,2.8731,2.8814,2.8919,2.9003,2.9159,2.9224,2.9362,2.9479,2.9688,2.9801,2.9934,2.996,3.0003,2.9981,2.9955,2.9966,2.9961,2.9971,3.0006,3.0007,3.0007,3.0007,0,2.8283,2.8332,2.8448,2.8585,2.8682,2.8794,2.8908,2.8964,2.909,2.918,2.9318,2.9408,2.9586,2.9724,2.9869,2.9952,3.0002,3.0013,3.0034,3.0011,2.9973,2.9998,2.988,3.001,3.0009,3.0009,3.0009,3.0009,2.8321,2.8401,2.8534,2.8663,2.876,2.8865,2.8953,2.9049,2.9165,2.9319,2.9373,2.9515,2.9646,2.9847,2.993,3.0044,3.0048,3.0077,3.0085,3.0091,3.0091,2.9952,3.007,3.007,3.0071,3.0071,3.0071,0,2.8403,2.8492,2.861,2.8768,2.887,2.8907,2.9035,2.9119,2.9243,2.936,2.9474,2.9633,2.9768,2.9891,3.0031,3.0099,3.0125,3.0132,3.013,3.0149,3.0077,3.0047,3.0109,3.0109,3.0109,3.0109,3.0109,3.0109,2.8457,2.8595,2.8659,2.8847,2.8936,2.9077,2.9147,2.9246,2.9341,2.9516,2.9628,2.9707,2.9828,2.9979,3.0104,3.0137,3.0187,3.0189,3.0228,3.0159,3.0154,3.0149,3.0121,3.0198,3.0198,3.0291,3.0292,3.0293]}]]